Roanoke, VA

10:11 PM EST on November 16, 2019 (GMT -0500)
Roanoke Regional-Woodrum

Weather History for KROA - September, 2019

Change the Weather History Date:

Thursday, September 5, 2019

  Actual Average Record
Temperature  
Mean Temperature 79 °F 72 °F  
Max Temperature 86 °F 82 °F 101 °F (1954)
Min Temperature 72 °F 61 °F 46 °F (1997)
Degree Days  
Heating Degree Days 0 0  
Month to date heating degree days 0 0  
Since 1 July heating degree days 0 1  
Cooling Degree Days 14 7  
Month to date cooling degree days 62 38  
Year to date cooling degree days 1425 1085  
Growing Degree Days 30 (Base 50)    
Moisture  
Dew Point 65 °F    
Average Humidity 65    
Maximum Humidity 79    
Minimum Humidity 51    
Precipitation  
Precipitation 0.00 in 0.13 in 3.83 in (1935)
Month to date precipitation 0.05 0.68  
Year to date precipitation 30.75 28.81  
Snow  
Snow 0.00 in - - ()
Month to date snowfall 0.0  
Since 1 July snowfall T  
Since 1 September snowfall 0.0  
Snow Depth 0.00 in    
Sea Level Pressure  
Sea Level Pressure 29.97 in    
Wind  
Wind Speed 8 mph (NE)    
Max Wind Speed 14 mph    
Max Gust Speed 19 mph    
Visibility 10 miles    
Events      
T = Trace of Precipitation, MM = Missing Value Source: NWS Daily Summary

Daily Weather History Graph

Daily Weather History Graph

Search for Another Location

Airport or City:

Astronomy

Sep. 05, 2019 Rise Set
Actual Time 6:53 AM EDT 7:43 PM EDT
Civil Twilight 6:27 AM EDT 8:09 PM EDT
Nautical Twilight 5:55 AM EDT 8:40 PM EDT
Astronomical Twilight 5:23 AM EDT 9:13 PM EDT
Moon 1:49 PM EDT (9/5) No Moon Set
Length of Visible Light 13h 42m
Length of Day
12h 49m
Waxing Crescent, 45% of the Moon is Illuminated
Sep 5
Waxing Crescent
Sep 5
First Quarter
Sep 14
Full
Sep 21
Last Quarter
Sep 28
New

Hourly Weather History & Observations

Time (EDT) Temp. Heat Index Dew Point Humidity Pressure Visibility Wind Dir Wind Speed Gust Speed Precip Events Conditions
12:54 AM 75.0 °F - 68.0 °F 79% 29.97 in 10.0 mi West 3.5 mph - N/A   Clear
1:54 AM 75.9 °F - 68.0 °F 76% 29.98 in 10.0 mi Calm Calm - N/A   Clear
2:54 AM 73.0 °F - 66.9 °F 81% 29.97 in 10.0 mi NNW 4.6 mph - N/A   Scattered Clouds
3:54 AM 75.0 °F - 66.9 °F 76% 29.97 in 10.0 mi Calm Calm - N/A   Clear
4:54 AM 75.0 °F - 66.0 °F 73% 29.98 in 10.0 mi ENE 6.9 mph - N/A   Scattered Clouds
5:54 AM 75.9 °F - 64.9 °F 69% 29.98 in 10.0 mi NNE 9.2 mph - N/A   Overcast
6:54 AM 75.0 °F - 64.0 °F 69% 29.99 in 10.0 mi NNE 8.1 mph - N/A   Overcast
7:54 AM 75.0 °F - 63.0 °F 66% 30.01 in 10.0 mi NNE 8.1 mph - N/A   Overcast
8:54 AM 73.9 °F - 63.0 °F 68% 30.02 in 10.0 mi NNE 9.2 mph - N/A   Overcast
9:45 AM 75.0 °F - 63.0 °F 66% 30.06 in 10.0 mi NNE 10.4 mph - N/A   Overcast
9:54 AM 75.0 °F - 63.0 °F 66% 30.02 in 10.0 mi NNE 10.4 mph - N/A   Overcast
10:52 AM 77.0 °F - 64.4 °F 65% 30.04 in 10.0 mi NNE 8.1 mph - N/A   Scattered Clouds
10:54 AM 78.1 °F - 64.0 °F 62% 30.00 in 10.0 mi NNE 8.1 mph - N/A   Scattered Clouds
11:54 AM 80.1 °F 81.7 °F 64.0 °F 58% 29.99 in 10.0 mi NE 9.2 mph - N/A   Scattered Clouds
12:54 PM 81.0 °F 82.5 °F 64.0 °F 56% 29.98 in 10.0 mi NE 9.2 mph - N/A   Scattered Clouds
1:54 PM 84.0 °F 85.8 °F 64.9 °F 53% 29.97 in 10.0 mi NE 10.4 mph - N/A   Partly Cloudy
2:54 PM 82.9 °F 84.4 °F 64.0 °F 53% 29.95 in 10.0 mi ENE 6.9 mph - N/A   Mostly Cloudy
3:54 PM 82.9 °F 84.4 °F 64.0 °F 53% 29.93 in 10.0 mi NE 8.1 mph - N/A   Mostly Cloudy
4:54 PM 82.9 °F 84.4 °F 64.0 °F 53% 29.92 in 10.0 mi ENE 9.2 mph - N/A   Mostly Cloudy
5:54 PM 81.0 °F 83.3 °F 66.9 °F 62% 29.93 in 10.0 mi ESE 11.5 mph - N/A   Mostly Cloudy
6:54 PM 80.1 °F 81.9 °F 64.9 °F 60% 29.91 in 10.0 mi NNE 9.2 mph - N/A   Partly Cloudy
7:54 PM 78.1 °F - 64.0 °F 62% 29.92 in 10.0 mi NE 9.2 mph - N/A   Mostly Cloudy
8:54 PM 75.9 °F - 64.0 °F 67% 29.94 in 10.0 mi NNE 11.5 mph - N/A   Mostly Cloudy
9:54 PM 75.0 °F - 64.0 °F 69% 29.94 in 10.0 mi NE 11.5 mph - N/A   Mostly Cloudy
10:54 PM 73.9 °F - 64.0 °F 71% 29.93 in 10.0 mi NNE 11.5 mph - N/A   Scattered Clouds
11:54 PM 73.9 °F - 64.0 °F 71% 29.92 in 10.0 mi ENE 8.1 mph - N/A   Mostly Cloudy